星链-4306 (STARLINK-4306 )

导读 | 星芒AI

STARLINK-4306 是 SpaceX Starlink 卫星互联网项目中的一颗低轨卫星,属于第 15 批部署的 Starlink 卫星群。该卫星于 2022 年发射,运行在约 550 公里的轨道高度,旨在为全球用户提供高速、低延迟的宽带互联网服务。Starlink 项目致力于通过大规模卫星星座改善偏远地区的网络接入,提升全球通信能力。STARLINK-4306 采用先进推进和通信技术,支持自动避撞和高效数据传输,是实现 Starlink 全球覆盖目标的重要组成部分。

基本信息
目录编号:
53067
目录名称:
STARLINK-4306
国际标识:
2022-077AA
轨道中心:
EARTH
卫星名称:
星链-4306
卫星全名:
星链-4306 (STARLINK-4306 )
卫星状态:
已陨落 最后检测时间 2025-06-06
发射日期:
2022-07-11 UTC
国别 :
美国 (US)
星等 :
--
轨道信息
数据来源 国际轨道数据
星历时间: 2025-06-05T21:34:55+0800
轨道信息已过期152天
半长轴: 6548.746km
偏心率: 0.0012656
轨道倾角: 97.638°
近地点辐角 248.096°
升交点赤经 344.765°
平近点角 190.016°
近地点: 162.322km
远地点: 178.9km
周期: 87.902分钟
每日圈数: 16.381951
详细信息
固有亮度:
5
最大亮度:
2.5
卫星平台:
Starlink v1.5
覆盖范围:
全球
运营商:
太空探索技术公司
运营商所在国:
美国
制造商(研发单位):
太空探索技术公司
制造商所在国:
美国
使用方式:
暂无
卫星简介
星链(Starlink)计划是由太空探索技术公司(SpaceX)提出的一个巨型低轨卫星互联网星座项目,计划在2019年至2024年间在太空搭建由约1.2万颗卫星组成的“星链”网络,其中1584颗将部署在地球上空550千米处的近地轨道,并从2020年开始工作。该卫星仍在工作。